Location: Newark
(50.4348°N, 30.5552°E)
Time: 22:35:11
(UTC+00:00)

Tiros 1 despin weight - Pass Details

Date: 28 January 2020
Orbit: 594 x 642 km, 48.2° (Epoch: 19 February)

Event Time Altitude Azimuth Distance (km) Brightness Sun altitude
Rises 13:54:16 0° 279° (W) 2,906 ? 5.6°
Reaches altitude 10° 13:56:59 10° 264° (W) 2,005 ? 5.3°
Maximum altitude 14:00:30 22° 215° (SW) 1,392 ? 4.8°
Drops below altitude 10° 14:04:03 10° 165° (SSE) 2,016 ? 4.4°
Sets 14:06:48 0° 150° (SSE) 2,926 ? 4.0°
